Klawock, AK

5:53 PM AKDT on April 28, 2017 (GMT -0800)
Klawock

Weather History for PAKW - November, 2012

Change the Weather History Date:

Sunday, November 4, 2012

  Actual Average Record
Temperature  
Mean Temperature 47 °F -  
Max Temperature 52 °F 45 °F 55 °F (2016)
Min Temperature 43 °F 34 °F 25 °F (2003)
Degree Days  
Heating Degree Days 18    
Moisture  
Dew Point 43 °F    
Average Humidity 87    
Maximum Humidity 93    
Minimum Humidity 73    
Precipitation  
Precipitation 1.60 in - - ()
Sea Level Pressure  
Sea Level Pressure 29.15 in    
Wind  
Wind Speed 7 mph (South)    
Max Wind Speed 24 mph    
Max Gust Speed 43 mph    
Visibility 5 miles    
Events Rain    
Averages and records for this station are not official NWS values.
T = Trace of Precipitation, MM = Missing Value Source: NWS Daily Summary

Daily Weather History Graph

Daily Weather History Graph

Search for Another Location

Airport or City:

Trip Planner

Search our weather history database for the weather conditions in past years. The results will help you decide how hot, cold, wet, or windy it might be!

Date:

Astronomy

Nov. 04, 2012 Rise Set
Actual Time 7:05 AM AKST 4:05 PM AKST
Civil Twilight 6:25 AM AKST 4:45 PM AKST
Nautical Twilight 5:41 AM AKST 5:29 PM AKST
Astronomical Twilight 4:59 AM AKST 6:11 PM AKST
Moon 8:42 PM AKST (11/4) 12:04 PM AKST (11/4)
Length of Visible Light 10h 19m
Length of Day
8h 59m
Waning Gibbous, 70% of the Moon is Illuminated
Nov 4
Waning Gibbous
Nov 6
Last Quarter
Nov 13
New
Nov 20
First Quarter
Nov 28
Full

Hourly Weather History & Observations

Time (AKST) Temp. Windchill Dew Point Humidity Pressure Visibility Wind Dir Wind Speed Gust Speed Precip Events Conditions
12:53 AM 45.0 °F - 39.0 °F 80% 29.71 in 10.0 mi Calm Calm - 0.00 in   Mostly Cloudy
1:53 AM 46.0 °F 44.8 °F 39.0 °F 76% 29.70 in 10.0 mi SW 3.5 mph - N/A   Overcast
1:53 AM 46.0 °F - 37.9 °F 73% 29.63 in 10.0 mi Calm Calm - N/A   Partly Cloudy
2:53 AM 44.1 °F 42.5 °F 39.9 °F 85% 29.60 in 8.0 mi Variable 3.5 mph - 0.01 in Rain Light Rain
3:53 AM 43.0 °F 39.5 °F 39.9 °F 89% 29.55 in 10.0 mi ENE 5.8 mph - 0.04 in Rain Light Rain
4:53 AM 43.0 °F - 41.0 °F 93% 29.46 in 10.0 mi Calm Calm - 0.08 in Rain Light Rain
5:53 AM 44.1 °F 41.5 °F 39.9 °F 85% 29.37 in 8.0 mi Variable 4.6 mph - 0.09 in Rain Light Rain
6:53 AM 44.1 °F 37.1 °F 39.0 °F 82% 29.25 in 10.0 mi NNE 15.0 mph 28.8 mph 0.01 in Rain Light Rain
7:53 AM 45.0 °F 43.5 °F 39.0 °F 80% 29.16 in 10.0 mi Variable 3.5 mph 20.7 mph 0.00 in Rain Light Rain
8:53 AM 46.0 °F - 43.0 °F 89% 29.07 in 10.0 mi Calm Calm - 0.00 in Rain Light Rain
9:53 AM 48.0 °F - 44.1 °F 86% 28.98 in 6.0 mi ENE 4.6 mph - 0.02 in Rain Rain
10:04 AM 48.2 °F - 44.6 °F 87% 28.97 in 2.5 mi North 4.6 mph - 0.03 in Rain Rain
10:16 AM 48.2 °F - 46.4 °F 93% 28.96 in 3.0 mi Calm Calm - 0.05 in Rain Light Rain
10:36 AM 48.2 °F - 46.4 °F 93% 28.95 in 1.8 mi Variable 4.6 mph - 0.09 in Rain Heavy Rain
10:46 AM 50.0 °F - 46.4 °F 87% 28.95 in 2.0 mi Variable 4.6 mph - 0.13 in Rain Rain
10:51 AM 51.8 °F - 46.4 °F 82% 28.96 in 3.0 mi Variable 6.9 mph - 0.14 in Rain Rain
10:53 AM 51.1 °F - 46.9 °F 86% 28.95 in 3.0 mi SSE 10.4 mph 25.3 mph 0.14 in Rain Rain
11:53 AM 51.1 °F - 44.1 °F 77% 28.93 in 9.0 mi Variable 5.8 mph 32.2 mph 0.05 in Rain Light Rain
12:53 PM 48.9 °F - 44.1 °F 83% 28.90 in 4.0 mi Variable 4.6 mph 21.9 mph 0.11 in Rain Light Rain
1:11 PM 48.2 °F - 44.6 °F 87% 28.89 in 2.5 mi Variable 6.9 mph 18.4 mph 0.04 in Rain Rain
1:32 PM 48.2 °F - 42.8 °F 82% 28.87 in 3.0 mi SSE 10.4 mph 28.8 mph 0.09 in Rain Rain
1:53 PM 46.9 °F - 44.1 °F 90% 28.86 in 3.0 mi SSE 10.4 mph 27.6 mph 0.11 in Rain Light Rain
2:15 PM 46.4 °F 40.1 °F 42.8 °F 87% 28.86 in 2.5 mi South 15.0 mph 28.8 mph 0.02 in Rain Light Rain
2:23 PM 46.4 °F 41.5 °F 42.8 °F 87% 28.85 in 3.0 mi South 10.4 mph 26.5 mph 0.03 in Rain Light Rain
2:31 PM 46.4 °F 41.9 °F 42.8 °F 87% 28.86 in 2.5 mi SSE 9.2 mph 29.9 mph 0.05 in Rain Rain
2:53 PM 46.9 °F - 44.1 °F 90% 28.87 in 2.5 mi SSE 10.4 mph 27.6 mph 0.07 in Rain Light Rain
3:04 PM 46.4 °F 41.9 °F 44.6 °F 93% 28.88 in 1.5 mi SSE 9.2 mph 31.1 mph 0.03 in Rain Rain
3:12 PM 46.4 °F 40.1 °F 44.6 °F 93% 28.88 in 1.0 mi SSE 15.0 mph 34.5 mph 0.06 in Rain Rain
3:43 PM 48.2 °F - 44.6 °F 87% 28.90 in 2.0 mi South 9.2 mph 26.5 mph 0.14 in Rain Light Rain
3:53 PM 48.0 °F - 45.0 °F 89% 28.91 in 3.0 mi Variable 6.9 mph 25.3 mph 0.15 in Rain Light Rain
4:53 PM 50.0 °F - 46.9 °F 89% 28.97 in 10.0 mi South 11.5 mph 23.0 mph 0.04 in Rain Light Rain
5:53 PM 48.0 °F - 46.0 °F 93% 29.07 in 3.0 mi SSW 24.2 mph 38.0 mph 0.08 in Rain Light Rain
6:53 PM 46.0 °F 38.3 °F 44.1 °F 93% 29.18 in 2.5 mi SSW 20.7 mph 42.6 mph 0.08 in   Overcast
7:53 PM 46.0 °F 38.8 °F 43.0 °F 89% 29.28 in 2.5 mi South 18.4 mph 39.1 mph 0.09 in   Overcast
8:24 PM 46.4 °F 38.1 °F 42.8 °F 87% 29.35 in 3.0 mi SSW 24.2 mph 42.6 mph 0.07 in Rain Rain
8:53 PM 46.0 °F 37.6 °F 43.0 °F 89% 29.41 in 3.0 mi South 24.2 mph 35.7 mph 0.13 in Rain Rain
9:49 PM 46.4 °F 40.4 °F 44.6 °F 93% 29.50 in 2.0 mi SSW 13.8 mph 29.9 mph 0.17 in Rain Heavy Rain
9:53 PM 46.0 °F 39.3 °F 44.1 °F 93% 29.50 in 2.0 mi SSW 16.1 mph 29.9 mph 0.19 in Rain Heavy Rain
10:04 PM 46.4 °F 39.5 °F 44.6 °F 93% 29.51 in 4.0 mi SSW 17.3 mph 31.1 mph 0.03 in Rain Rain
10:53 PM 46.0 °F 38.5 °F 43.0 °F 89% 29.58 in 6.0 mi SSW 19.6 mph 29.9 mph 0.11 in Rain Rain